Location: Molalla
(45.1473°N, 122.5770°W)
Time: 14:08:47
(UTC-08:00)

Transit 2A Rocket - All Passes

Search period start: 13 November 2019 00:00
Search period end: 23 November 2019 00:00
Orbit: 594 x 909 km, 66.7° (Epoch: 13 November)

Date Brightness Start Highest point End Pass type
(mag) Time Alt. Az. Time Alt. Az. Time Alt. Az.
13 Nov - 00:28:21 10° WSW 00:32:22 27° NW 00:36:12 10° NNE night (unlit)
13 Nov - 05:46:18 10° NNE 05:46:48 10° NNE 05:47:19 10° NE visible
13 Nov - 07:26:06 10° NNW 07:30:21 52° NE 07:34:44 10° SE daylight
13 Nov - 09:09:31 10° WNW 09:12:30 18° WSW 09:15:34 10° SSW daylight
13 Nov - 22:03:28 10° SSE 22:07:21 24° ESE 22:11:02 10° ENE night (unlit)
13 Nov - 23:45:08 10° SW 23:49:41 43° NW 23:53:58 10° NNE night (unlit)
14 Nov - 06:43:49 10° NNW 06:47:41 31° NE 06:51:40 10° ESE daylight
14 Nov - 08:26:18 10° NW 08:30:11 32° WSW 08:34:14 10° S daylight
14 Nov - 21:22:41 10° SE 21:25:04 14° ESE 21:27:23 10° ENE night (unlit)
14 Nov - 23:02:17 10° SW 23:07:06 75° NW 23:11:35 10° NNE night (unlit)
15 Nov - 00:48:01 10° WNW 00:50:21 14° NW 00:52:38 10° N night (unlit)
15 Nov - 06:01:42 10° N 06:04:56 20° NE 06:08:12 10° E visible
15 Nov - 07:43:30 10° NW 07:47:47 59° WSW 07:52:15 10° SSE daylight
15 Nov - 22:19:50 10° SSW 22:24:36 62° ESE 22:29:02 10° NE night (unlit)
16 Nov - 00:04:00 10° W 00:07:28 20° NW 00:10:49 10° N night (unlit)
16 Nov - 05:19:54 10° N 05:22:02 13° NE 05:24:10 10° ENE visible
16 Nov - 07:00:57 10° NNW 07:05:18 77° ENE 07:09:50 10° SE daylight
16 Nov - 08:45:30 10° W 08:47:15 12° WSW 08:49:00 10° SW daylight
16 Nov - 21:37:48 10° S 21:42:10 35° ESE 21:46:16 10° NE night (unlit)
16 Nov - 23:20:30 10° WSW 23:24:42 31° NW 23:28:42 10° NNE night (unlit)
17 Nov - 06:18:33 10° NNW 06:22:42 43° NE 06:27:01 10° SE visible
17 Nov - 08:01:35 10° WNW 08:04:58 22° WSW 08:08:30 10° SSW daylight
17 Nov - 20:56:21 10° SSE 20:59:49 20° ESE 21:03:07 10° ENE night (unlit)
17 Nov - 22:37:25 10° SW 22:42:03 52° NW 22:46:24 10° NNE night (unlit)
18 Nov - 00:24:43 10° NW 00:25:34 10° NNW 00:26:27 10° NNW night (unlit)
18 Nov - 05:36:19 10° NNW 05:40:01 26° NE 05:43:49 10° ESE visible
18 Nov - 07:18:33 10° NW 07:22:38 39° WSW 07:26:54 10° S daylight
18 Nov - 20:16:24 10° ESE 20:17:34 11° ESE 20:18:44 10° E night (unlit)
18 Nov - 21:54:42 10° SSW 21:59:29 90° NW 22:03:58 10° NNE night (unlit)
18 Nov - 23:39:52 10° WNW 23:42:37 16° NW 23:45:18 10° N night (unlit)
19 Nov - 04:54:16 10° N 04:57:12 17° NE 05:00:11 10° E visible
19 Nov - 06:35:51 10° NW 06:40:11 73° WSW 06:44:45 10° SSE visible
19 Nov - 21:12:23 10° SSW 21:17:01 51° ESE 21:21:21 10° NE night (unlit)
19 Nov - 22:56:03 10° W 22:59:46 23° NW 23:03:21 10° N night (unlit)
20 Nov - 04:12:43 10° NNE 04:14:16 12° NE 04:15:50 10° NE visible
20 Nov - 05:53:21 10° NNW 05:57:40 63° NE 06:02:11 10° SE visible
20 Nov - 07:37:10 10° WNW 07:39:44 15° WSW 07:42:23 10° SW daylight
20 Nov - 20:30:32 10° S 20:34:37 28° ESE 20:38:29 10° NE night (unlit)
20 Nov - 22:12:42 10° WSW 22:17:02 37° NW 22:21:10 10° NNE night (unlit)
21 Nov - 05:11:00 10° NNW 05:15:03 36° NE 05:19:14 10° ESE visible
21 Nov - 06:53:44 10° NW 06:57:26 27° WSW 07:01:19 10° S daylight
21 Nov - 19:49:25 10° SSE 19:52:18 16° ESE 19:55:06 10° ENE night (unlit)
21 Nov - 21:29:44 10° SW 21:34:25 63° NW 21:38:49 10° NNE night (unlit)
21 Nov - 23:16:06 10° WNW 23:17:48 12° NW 23:19:30 10° NNW night (unlit)
22 Nov - 04:28:49 10° N 04:32:19 23° NE 04:35:54 10° E visible
22 Nov - 06:10:50 10° NW 06:15:03 49° WSW 06:19:30 10° SSE visible
22 Nov - 20:47:09 10° SSW 20:51:53 75° ESE 20:56:19 10° NE night (unlit)
22 Nov - 22:31:47 10° W 22:34:53 18° NW 22:37:54 10° N night (unlit)
